Simultaneous Nadir Overpasses (SNOs) Predictions

Prediction of SNOs between FY3D and METOP-A Satellite Orbit:

Table of predicted SNOs for the next 14.0 days since TLE Epoch: 8/30/2021
Index Date (FY3D) Time (FY3D) Lat,Lon (FY3D) SZA (FY3D ) Date (METOP-A) Time (METOP-A) Lat,Lon (METOP-A) SZA (METOP-A ) Distance(km) Time Diff (sec)
1 09/13/2021 12:46:07 77.91, -32.33 75.00 09/13/2021 12:47:12 77.88, -28.71 74.70 84.44 65
2 09/13/2021 13:36:48 -77.79, 135.57 105.15 09/13/2021 13:37:56 -77.79, 138.20 105.35 61.82 68
3 09/13/2021 14:27:28 77.58, -56.09 74.60 09/13/2021 14:28:41 77.56, -55.51 74.51 14.23 73
4 09/13/2021 15:18:10 -77.51, 111.58 105.49 09/13/2021 15:19:24 -77.51, 111.62 105.51 0.84 74
5 09/13/2021 16:08:55 77.50, -81.08 74.52 09/13/2021 16:10:04 77.49, -81.13 74.50 1.76 69
6 09/13/2021 16:59:39 -77.51, 86.20 105.46 09/13/2021 17:00:46 -77.49, 86.19 105.50 2.45 67



Historial Predications of SNOs between FY3D and METOP-A
